Time,TemperatureF,DewpointF,PressureIn,WindDirection,WindDirectionDegrees,WindSpeedMPH,WindSpeedGustMPH,Humidity,HourlyPrecipIn,Conditions,Clouds,dailyrainin,SoftwareType,DateUTC
2013-05-19 00:07:00,60.3,57.8,30.22,North,360,0.0,0.0,92,0.00,,OVC008,0.00,VWS V14.01,2013-05-19 04:07:00,
2013-05-19 00:09:00,60.2,58.0,30.22,North,360,0.0,0.0,93,0.00,,OVC008,0.00,VWS V14.01,2013-05-19 04:09:00,
2013-05-19 00:14:00,60.3,58.2,30.22,North,360,0.0,0.0,93,0.00,,OVC008,0.00,VWS V14.01,2013-05-19 04:14:00,
2013-05-19 00:19:00,60.3,58.2,30.22,North,360,0.0,0.0,93,0.00,,OVC008,0.00,VWS V14.01,2013-05-19 04:19:00,
2013-05-19 00:24:00,60.3,58.2,30.22,North,360,0.0,0.0,93,0.00,,OVC008,0.00,VWS V14.01,2013-05-19 04:24:00,
2013-05-19 00:29:00,60.2,58.0,30.22,North,360,0.0,0.0,93,0.00,,OVC008,0.00,VWS V14.01,2013-05-19 04:29:00,
2013-05-19 00:34:00,60.2,58.0,30.22,North,360,0.0,0.0,93,0.00,,OVC008,0.00,VWS V14.01,2013-05-19 04:34:00,
2013-05-19 00:44:00,60.3,58.5,30.22,North,360,0.0,0.0,94,0.00,,OVC008,0.00,VWS V14.01,2013-05-19 04:44:00,
2013-05-19 00:49:00,60.4,58.6,30.22,North,360,0.0,0.0,94,0.00,,OVC008,0.00,VWS V14.01,2013-05-19 04:49:00,
2013-05-19 00:54:00,60.4,58.6,30.21,North,360,0.0,0.0,94,0.00,,OVC006,0.00,VWS V14.01,2013-05-19 04:54:00,
2013-05-19 00:59:00,60.3,58.5,30.22,North,360,0.0,0.0,94,0.00,,OVC006,0.00,VWS V14.01,2013-05-19 04:59:00,
2013-05-19 01:07:00,60.3,58.5,30.21,North,360,0.0,0.0,94,0.00,,OVC006,0.00,VWS V14.01,2013-05-19 05:07:00,
2013-05-19 01:14:00,60.3,58.5,30.21,North,360,0.0,0.0,94,0.00,,OVC006,0.00,VWS V14.01,2013-05-19 05:14:00,
2013-05-19 01:19:00,60.3,58.5,30.21,North,360,0.0,0.0,94,0.00,,OVC006,0.00,VWS V14.01,2013-05-19 05:19:00,
2013-05-19 01:26:00,60.3,58.5,30.21,North,360,0.0,0.0,94,0.00,,OVC006,0.00,VWS V14.01,2013-05-19 05:26:00,
2013-05-19 01:34:00,60.4,58.6,30.20,North,360,0.0,0.0,94,0.00,,OVC006,0.00,VWS V14.01,2013-05-19 05:34:00,
2013-05-19 01:39:00,60.4,58.6,30.20,North,360,0.0,0.0,94,0.00,,OVC006,0.00,VWS V14.01,2013-05-19 05:39:00,
2013-05-19 01:44:00,60.4,58.9,30.20,North,360,0.0,0.0,95,0.00,,OVC006,0.00,VWS V14.01,2013-05-19 05:44:00,
2013-05-19 01:49:00,60.3,58.8,30.20,North,360,0.0,0.0,95,0.00,,OVC006,0.00,VWS V14.01,2013-05-19 05:49:00,
2013-05-19 01:54:00,60.3,58.8,30.20,North,360,0.0,0.0,95,0.00,,OVC006,0.00,VWS V14.01,2013-05-19 05:54:00,
2013-05-19 01:59:00,60.2,58.7,30.20,North,360,0.0,0.0,95,0.00,,OVC006,0.00,VWS V14.01,2013-05-19 05:59:00,
2013-05-19 02:07:00,60.2,59.0,30.20,North,360,0.0,0.0,96,0.00,,OVC006,0.00,VWS V14.01,2013-05-19 06:07:00,
2013-05-19 02:14:00,60.2,59.0,30.20,North,360,0.0,0.0,96,0.00,,OVC006,0.00,VWS V14.01,2013-05-19 06:14:00,
2013-05-19 02:19:00,60.2,59.0,30.20,North,360,0.0,0.0,96,0.00,,OVC006,0.00,VWS V14.01,2013-05-19 06:19:00,
2013-05-19 02:24:00,60.1,58.9,30.20,North,360,0.0,0.0,96,0.00,,OVC006,0.00,VWS V14.01,2013-05-19 06:24:00,
2013-05-19 02:29:00,60.1,59.2,30.20,North,360,0.0,0.0,97,0.00,,OVC006,0.00,VWS V14.01,2013-05-19 06:29:00,
2013-05-19 02:34:00,60.1,59.2,30.20,North,360,0.0,0.0,97,0.00,,OVC006,0.00,VWS V14.01,2013-05-19 06:34:00,
2013-05-19 02:39:00,60.1,59.2,30.19,North,360,0.0,0.0,97,0.00,,OVC006,0.00,VWS V14.01,2013-05-19 06:39:00,
2013-05-19 02:44:00,60.1,59.2,30.19,North,360,0.0,0.0,97,0.00,,OVC006,0.00,VWS V14.01,2013-05-19 06:44:00,
2013-05-19 02:49:00,60.0,59.1,30.19,North,360,0.0,0.0,97,0.00,,OVC006,0.00,VWS V14.01,2013-05-19 06:49:00,
2013-05-19 02:54:00,60.1,59.2,30.19,North,360,0.0,0.0,97,0.00,,OVC006,0.00,VWS V14.01,2013-05-19 06:54:00,
2013-05-19 02:59:00,60.0,59.1,30.19,North,360,0.0,0.0,97,0.00,,,0.00,VWS V14.01,2013-05-19 06:59:00,
2013-05-19 03:07:00,60.1,59.2,30.19,North,360,0.0,0.0,97,0.00,,,0.00,VWS V14.01,2013-05-19 07:07:00,
2013-05-19 03:14:00,60.1,59.2,30.19,North,360,0.0,0.0,97,0.00,,,0.00,VWS V14.01,2013-05-19 07:14:00,
2013-05-19 03:19:00,60.1,59.2,30.19,North,360,0.0,0.0,97,0.00,,,0.00,VWS V14.01,2013-05-19 07:19:00,
2013-05-19 03:24:00,60.1,59.2,30.19,North,360,0.0,0.0,97,0.00,,,0.00,VWS V14.01,2013-05-19 07:24:00,
2013-05-19 03:29:00,60.1,59.2,30.19,North,360,0.0,0.0,97,0.00,,,0.00,VWS V14.01,2013-05-19 07:29:00,
2013-05-19 03:34:00,60.3,59.4,30.18,North,360,0.0,0.0,97,0.00,,,0.00,VWS V14.01,2013-05-19 07:34:00,
2013-05-19 03:39:00,60.3,59.4,30.18,North,360,0.0,0.0,97,0.00,,,0.00,VWS V14.01,2013-05-19 07:39:00,
2013-05-19 03:44:00,60.2,59.3,30.18,North,360,0.0,0.0,97,0.00,,,0.00,VWS V14.01,2013-05-19 07:44:00,
2013-05-19 03:49:00,60.3,59.4,30.18,North,360,0.0,0.0,97,0.00,,,0.00,VWS V14.01,2013-05-19 07:49:00,
2013-05-19 03:54:00,60.3,59.4,30.18,North,360,0.0,0.0,97,0.00,,,0.00,VWS V14.01,2013-05-19 07:54:00,
2013-05-19 03:59:00,60.3,59.4,30.18,North,360,0.0,0.0,97,0.00,,,0.00,VWS V14.01,2013-05-19 07:59:00,
2013-05-19 04:07:00,60.3,59.1,30.18,North,360,0.0,0.0,96,0.00,,,0.00,VWS V14.01,2013-05-19 08:07:00,
2013-05-19 04:14:00,60.3,59.4,30.18,North,360,0.0,0.0,97,0.00,,,0.00,VWS V14.01,2013-05-19 08:14:00,
2013-05-19 04:19:00,60.4,59.5,30.18,North,360,0.0,0.0,97,0.00,,,0.00,VWS V14.01,2013-05-19 08:19:00,
2013-05-19 04:29:00,60.4,59.2,30.18,North,360,0.0,0.0,96,0.00,,,0.00,VWS V14.01,2013-05-19 08:29:00,
2013-05-19 04:34:00,60.4,59.5,30.17,North,360,0.0,0.0,97,0.00,,,0.00,VWS V14.01,2013-05-19 08:34:00,
2013-05-19 04:39:00,60.5,59.6,30.17,North,360,0.0,0.0,97,0.00,,,0.00,VWS V14.01,2013-05-19 08:39:00,
2013-05-19 04:44:00,60.4,59.5,30.17,North,360,0.0,0.0,97,0.00,,,0.00,VWS V14.01,2013-05-19 08:44:00,
2013-05-19 04:49:00,60.4,59.5,30.17,North,360,0.0,0.0,97,0.00,,,0.00,VWS V14.01,2013-05-19 08:49:00,
2013-05-19 04:59:00,60.4,59.5,30.17,North,360,0.0,0.0,97,0.00,,OVC004,0.00,VWS V14.01,2013-05-19 08:59:00,
2013-05-19 05:07:00,60.4,59.5,30.17,North,360,0.0,0.0,97,0.00,,OVC004,0.00,VWS V14.01,2013-05-19 09:07:00,
2013-05-19 05:14:00,60.3,59.4,30.16,North,360,0.0,0.0,97,0.00,,OVC004,0.00,VWS V14.01,2013-05-19 09:14:00,
2013-05-19 05:19:00,60.4,59.5,30.17,North,360,0.0,0.0,97,0.00,,OVC004,0.00,VWS V14.01,2013-05-19 09:19:00,
2013-05-19 05:24:00,60.5,59.6,30.17,North,360,0.0,0.0,97,0.00,,OVC004,0.00,VWS V14.01,2013-05-19 09:24:00,
2013-05-19 05:29:00,60.4,59.8,30.17,North,360,0.0,0.0,98,0.00,,OVC004,0.00,VWS V14.01,2013-05-19 09:29:00,
2013-05-19 05:34:00,60.5,59.9,30.17,North,360,0.0,0.0,98,0.00,,OVC004,0.00,VWS V14.01,2013-05-19 09:34:00,
2013-05-19 05:39:00,60.5,59.9,30.17,North,360,0.0,0.0,98,0.00,,OVC004,0.00,VWS V14.01,2013-05-19 09:39:00,
2013-05-19 05:49:00,60.5,59.9,30.18,North,360,0.0,0.0,98,0.00,,OVC004,0.00,VWS V14.01,2013-05-19 09:49:00,
2013-05-19 05:54:00,60.5,59.9,30.18,North,360,0.0,0.0,98,0.00,,OVC004,0.00,VWS V14.01,2013-05-19 09:54:00,
2013-05-19 05:59:00,60.5,59.9,30.18,North,360,0.0,0.0,98,0.00,,,0.00,VWS V14.01,2013-05-19 09:59:00,
2013-05-19 06:07:00,60.5,59.9,30.18,North,360,0.0,0.0,98,0.00,,,0.00,VWS V14.01,2013-05-19 10:07:00,
2013-05-19 06:14:00,60.5,59.9,30.17,North,360,0.0,0.0,98,0.00,,,0.00,VWS V14.01,2013-05-19 10:14:00,
2013-05-19 06:19:00,60.6,60.0,30.17,North,360,0.0,0.0,98,0.00,,,0.00,VWS V14.01,2013-05-19 10:19:00,
2013-05-19 06:26:00,60.6,60.0,30.17,North,360,0.0,0.0,98,0.00,,,0.00,VWS V14.01,2013-05-19 10:26:00,
2013-05-19 06:34:00,60.7,60.1,30.18,North,360,0.0,0.0,98,0.00,,,0.00,VWS V14.01,2013-05-19 10:34:00,
2013-05-19 06:39:00,60.6,60.0,30.18,North,360,0.0,0.0,98,0.00,,,0.00,VWS V14.01,2013-05-19 10:39:00,
2013-05-19 06:44:00,60.7,60.1,30.18,North,360,0.0,0.0,98,0.00,,,0.00,VWS V14.01,2013-05-19 10:44:00,
2013-05-19 06:49:00,60.7,60.4,30.18,North,360,0.0,0.0,99,0.00,,,0.00,VWS V14.01,2013-05-19 10:49:00,
2013-05-19 06:54:00,60.7,60.4,30.19,North,360,0.0,0.0,99,0.00,,,0.00,VWS V14.01,2013-05-19 10:54:00,
2013-05-19 07:07:00,60.8,60.5,30.19,North,360,0.0,0.0,99,0.00,,,0.00,VWS V14.01,2013-05-19 11:07:00,
2013-05-19 07:14:00,60.8,60.5,30.19,North,360,0.0,0.0,99,0.00,,,0.00,VWS V14.01,2013-05-19 11:14:00,
2013-05-19 07:19:00,60.8,60.5,30.19,North,360,0.0,0.0,99,0.00,,,0.00,VWS V14.01,2013-05-19 11:19:00,
2013-05-19 07:24:00,60.9,60.6,30.19,North,360,0.0,0.0,99,0.00,,,0.00,VWS V14.01,2013-05-19 11:24:00,
2013-05-19 07:34:00,61.0,60.7,30.19,North,360,0.0,0.0,99,0.00,,,0.00,VWS V14.01,2013-05-19 11:34:00,
2013-05-19 07:39:00,61.1,60.8,30.19,North,360,0.0,0.0,99,0.00,,,0.00,VWS V14.01,2013-05-19 11:39:00,
2013-05-19 07:44:00,61.1,60.8,30.19,North,360,0.0,0.0,99,0.00,,,0.00,VWS V14.01,2013-05-19 11:44:00,
2013-05-19 07:49:00,61.1,60.8,30.19,North,360,0.0,0.0,99,0.00,,,0.00,VWS V14.01,2013-05-19 11:49:00,
2013-05-19 07:54:00,61.1,60.8,30.19,North,360,0.0,0.0,99,0.00,,,0.00,VWS V14.01,2013-05-19 11:54:00,
2013-05-19 07:59:00,61.2,60.9,30.19,North,360,0.0,0.0,99,0.00,,,0.00,VWS V14.01,2013-05-19 11:59:00,
2013-05-19 08:07:00,61.3,61.0,30.20,North,360,0.0,0.0,99,0.00,,,0.00,VWS V14.01,2013-05-19 12:07:00,
2013-05-19 08:14:00,61.4,61.1,30.20,North,360,0.0,0.0,99,0.00,,,0.00,VWS V14.01,2013-05-19 12:14:00,
2013-05-19 08:19:00,61.4,61.1,30.21,North,360,0.0,0.0,99,0.00,,,0.00,VWS V14.01,2013-05-19 12:19:00,
2013-05-19 08:24:00,61.5,61.2,30.21,North,360,0.0,0.0,99,0.00,,,0.00,VWS V14.01,2013-05-19 12:24:00,
2013-05-19 08:29:00,61.5,61.2,30.21,North,360,0.0,0.0,99,0.00,,,0.00,VWS V14.01,2013-05-19 12:29:00,
2013-05-19 08:34:00,61.5,61.2,30.21,North,360,0.0,0.0,99,0.00,,,0.00,VWS V14.01,2013-05-19 12:34:00,
2013-05-19 08:39:00,61.5,61.2,30.21,North,360,0.0,0.0,99,0.00,,,0.00,VWS V14.01,2013-05-19 12:39:00,
2013-05-19 08:44:00,61.5,61.2,30.21,North,360,0.0,0.0,99,0.00,,,0.00,VWS V14.01,2013-05-19 12:44:00,
2013-05-19 08:49:00,61.6,61.3,30.21,North,360,0.0,0.0,99,0.00,,,0.00,VWS V14.01,2013-05-19 12:49:00,
2013-05-19 08:59:00,61.6,61.3,30.22,North,360,0.0,0.0,99,0.00,,,0.00,VWS V14.01,2013-05-19 12:59:00,
2013-05-19 09:07:00,61.7,61.4,30.22,North,360,0.0,0.0,99,0.00,,,0.00,VWS V14.01,2013-05-19 13:07:00,
2013-05-19 09:14:00,61.7,61.4,30.22,North,360,0.0,0.0,99,0.00,,,0.00,VWS V14.01,2013-05-19 13:14:00,
2013-05-19 09:19:00,61.8,61.5,30.22,North,360,0.0,0.0,99,0.00,,,0.00,VWS V14.01,2013-05-19 13:19:00,
2013-05-19 09:24:00,61.9,61.6,30.22,North,360,0.0,0.0,99,0.00,,,0.00,VWS V14.01,2013-05-19 13:24:00,
2013-05-19 09:29:00,61.9,61.6,30.22,North,360,0.0,0.0,99,0.00,,,0.00,VWS V14.01,2013-05-19 13:29:00,
2013-05-19 09:34:00,62.0,61.7,30.22,North,360,0.0,0.0,99,0.00,,,0.00,VWS V14.01,2013-05-19 13:34:00,
2013-05-19 09:39:00,62.1,62.1,30.22,North,360,0.0,0.0,100,0.00,,,0.00,VWS V14.01,2013-05-19 13:39:00,
2013-05-19 09:44:00,62.1,62.1,30.22,North,360,0.0,0.0,100,0.00,,,0.00,VWS V14.01,2013-05-19 13:44:00,
2013-05-19 09:49:00,62.1,62.1,30.21,North,360,0.0,0.0,100,0.00,,,0.00,VWS V14.01,2013-05-19 13:49:00,
2013-05-19 09:59:00,62.3,62.0,30.21,North,360,0.0,0.0,99,0.00,,,0.00,VWS V14.01,2013-05-19 13:59:00,
2013-05-19 10:07:00,62.5,62.2,30.21,North,360,0.0,0.0,99,0.00,,,0.00,VWS V14.01,2013-05-19 14:07:00,
2013-05-19 10:14:00,62.6,62.3,30.21,North,360,0.0,0.0,99,0.00,,,0.00,VWS V14.01,2013-05-19 14:14:00,
2013-05-19 10:19:00,62.8,62.8,30.21,North,360,0.0,0.0,100,0.00,,,0.00,VWS V14.01,2013-05-19 14:19:00,
2013-05-19 10:26:00,63.0,62.7,30.21,North,360,0.0,0.0,99,0.00,,,0.00,VWS V14.01,2013-05-19 14:26:00,
2013-05-19 10:34:00,63.5,63.2,30.20,North,360,0.0,0.0,99,0.00,,,0.00,VWS V14.01,2013-05-19 14:34:00,
2013-05-19 10:39:00,63.8,63.5,30.20,North,360,0.0,0.0,99,0.00,,,0.00,VWS V14.01,2013-05-19 14:39:00,
2013-05-19 10:44:00,64.1,63.8,30.20,North,360,0.0,0.0,99,0.00,,,0.00,VWS V14.01,2013-05-19 14:44:00,
2013-05-19 10:49:00,64.3,64.0,30.20,North,360,0.0,0.0,99,0.00,,,0.00,VWS V14.01,2013-05-19 14:49:00,
2013-05-19 10:54:00,64.4,64.1,30.21,North,360,0.0,0.0,99,0.00,,,0.00,VWS V14.01,2013-05-19 14:54:00,
2013-05-19 10:59:00,64.4,64.1,30.21,North,360,0.0,0.0,99,0.00,,,0.00,VWS V14.01,2013-05-19 14:59:00,
2013-05-19 11:07:00,64.1,63.5,30.21,North,360,0.0,0.0,98,0.00,,,0.00,VWS V14.01,2013-05-19 15:07:00,
2013-05-19 11:14:00,64.1,63.5,30.21,North,360,0.0,0.0,98,0.00,,,0.00,VWS V14.01,2013-05-19 15:14:00,
2013-05-19 11:19:00,64.1,63.2,30.21,North,360,0.0,0.0,97,0.00,,,0.00,VWS V14.01,2013-05-19 15:19:00,
2013-05-19 11:24:00,64.2,63.6,30.21,North,360,0.0,0.0,98,0.00,,,0.00,VWS V14.01,2013-05-19 15:24:00,
2013-05-19 11:29:00,64.3,63.4,30.21,North,360,0.0,0.0,97,0.00,,,0.00,VWS V14.01,2013-05-19 15:29:00,
2013-05-19 11:34:00,64.4,63.5,30.21,North,360,0.0,0.0,97,0.00,,,0.00,VWS V14.01,2013-05-19 15:34:00,
2013-05-19 11:39:00,64.6,63.7,30.21,North,360,0.0,0.0,97,0.00,,,0.00,VWS V14.01,2013-05-19 15:39:00,
2013-05-19 11:44:00,64.8,63.9,30.21,North,360,0.0,0.0,97,0.00,,,0.00,VWS V14.01,2013-05-19 15:44:00,
2013-05-19 11:49:00,64.9,63.7,30.21,North,360,0.0,0.0,96,0.00,,,0.00,VWS V14.01,2013-05-19 15:49:00,
2013-05-19 11:54:00,65.0,63.8,30.20,North,360,0.0,0.0,96,0.00,,,0.00,VWS V14.01,2013-05-19 15:54:00,
2013-05-19 11:59:00,65.2,63.7,30.20,North,360,0.0,0.0,95,0.00,,,0.00,VWS V14.01,2013-05-19 15:59:00,
2013-05-19 12:07:00,65.5,63.9,30.20,North,360,0.0,0.0,95,0.00,,,0.00,VWS V14.01,2013-05-19 16:07:00,
2013-05-19 12:14:00,65.8,63.9,30.20,North,360,0.0,0.0,94,0.00,,,0.00,VWS V14.01,2013-05-19 16:14:00,
2013-05-19 12:19:00,65.9,64.0,30.20,North,360,0.0,0.0,94,0.00,,,0.00,VWS V14.01,2013-05-19 16:19:00,
2013-05-19 12:24:00,65.9,64.0,30.20,North,360,0.0,0.0,94,0.00,,,0.00,VWS V14.01,2013-05-19 16:24:00,
2013-05-19 12:29:00,65.9,64.0,30.20,North,360,0.0,0.0,94,0.00,,,0.00,VWS V14.01,2013-05-19 16:29:00,
2013-05-19 12:34:00,66.0,64.1,30.20,North,360,0.0,0.0,94,0.00,,,0.00,VWS V14.01,2013-05-19 16:34:00,
2013-05-19 12:39:00,66.0,64.1,30.20,North,360,0.0,0.0,94,0.00,,,0.00,VWS V14.01,2013-05-19 16:39:00,
2013-05-19 12:44:00,66.1,64.2,30.20,North,360,0.0,0.0,94,0.00,,,0.00,VWS V14.01,2013-05-19 16:44:00,
2013-05-19 12:49:00,66.2,64.3,30.19,North,360,0.0,0.0,94,0.00,,,0.00,VWS V14.01,2013-05-19 16:49:00,
2013-05-19 12:54:00,66.3,64.4,30.19,North,360,0.0,0.0,94,0.00,,,0.00,VWS V14.01,2013-05-19 16:54:00,
2013-05-19 12:59:00,66.3,64.1,30.19,North,360,0.0,0.0,93,0.00,,OVC010,0.00,VWS V14.01,2013-05-19 16:59:00,
2013-05-19 13:07:00,66.4,64.2,30.19,North,360,0.0,0.0,93,0.00,,OVC010,0.00,VWS V14.01,2013-05-19 17:07:00,
2013-05-19 13:14:00,66.9,64.7,30.18,North,360,0.0,0.0,93,0.00,,OVC010,0.00,VWS V14.01,2013-05-19 17:14:00,
2013-05-19 13:19:00,67.0,64.4,30.18,North,360,0.0,0.0,92,0.00,,OVC010,0.00,VWS V14.01,2013-05-19 17:19:00,
2013-05-19 13:24:00,67.1,64.9,30.18,North,360,0.0,0.0,93,0.00,,OVC010,0.00,VWS V14.01,2013-05-19 17:24:00,
2013-05-19 13:34:00,67.2,64.7,30.18,North,360,0.0,0.0,92,0.00,,OVC010,0.00,VWS V14.01,2013-05-19 17:34:00,
2013-05-19 13:39:00,67.3,64.8,30.18,North,360,0.0,0.0,92,0.00,,OVC010,0.00,VWS V14.01,2013-05-19 17:39:00,
2013-05-19 13:44:00,67.4,64.8,30.17,North,360,0.0,0.0,92,0.00,,OVC010,0.00,VWS V14.01,2013-05-19 17:44:00,
2013-05-19 13:49:00,67.7,64.8,30.17,North,360,0.0,0.0,90,0.00,,OVC010,0.00,VWS V14.01,2013-05-19 17:49:00,
2013-05-19 13:54:00,67.9,64.7,30.17,North,360,0.0,0.0,89,0.00,,OVC010,0.00,VWS V14.01,2013-05-19 17:54:00,
2013-05-19 13:59:00,67.9,64.7,30.17,North,360,0.0,0.0,89,0.00,,OVC010,0.00,VWS V14.01,2013-05-19 17:59:00,
2013-05-19 14:07:00,68.0,64.8,30.17,North,360,0.0,0.0,89,0.00,,OVC010,0.00,VWS V14.01,2013-05-19 18:07:00,
2013-05-19 14:14:00,68.4,65.2,30.16,North,360,0.0,0.0,89,0.00,,OVC010,0.00,VWS V14.01,2013-05-19 18:14:00,
2013-05-19 14:19:00,68.7,65.1,30.16,North,360,0.0,0.0,88,0.00,,OVC010,0.00,VWS V14.01,2013-05-19 18:19:00,
2013-05-19 14:24:00,69.2,65.3,30.16,North,360,0.0,0.0,87,0.00,,OVC010,0.00,VWS V14.01,2013-05-19 18:24:00,
2013-05-19 14:29:00,70.0,65.7,30.15,North,360,0.0,0.0,86,0.00,,OVC010,0.00,VWS V14.01,2013-05-19 18:29:00,
2013-05-19 14:34:00,69.8,65.2,30.15,North,360,0.0,0.0,85,0.00,,OVC010,0.00,VWS V14.01,2013-05-19 18:34:00,
2013-05-19 14:39:00,70.2,65.5,30.15,North,360,0.0,0.0,85,0.00,,OVC010,0.00,VWS V14.01,2013-05-19 18:39:00,
2013-05-19 14:44:00,70.6,65.2,30.15,North,360,0.0,0.0,83,0.00,,OVC010,0.00,VWS V14.01,2013-05-19 18:44:00,
2013-05-19 14:49:00,70.9,65.5,30.15,North,360,0.0,0.0,83,0.00,,OVC010,0.00,VWS V14.01,2013-05-19 18:49:00,
2013-05-19 14:54:00,71.1,65.7,30.15,North,360,0.0,0.0,83,0.00,,OVC010,0.00,VWS V14.01,2013-05-19 18:54:00,
2013-05-19 14:59:00,71.1,65.7,30.14,North,360,0.0,0.0,83,0.00,,OVC013,0.00,VWS V14.01,2013-05-19 18:59:00,
2013-05-19 15:07:00,71.3,65.5,30.14,North,360,0.0,0.0,82,0.00,,OVC013,0.00,VWS V14.01,2013-05-19 19:07:00,
2013-05-19 15:14:00,71.8,65.6,30.14,North,360,0.0,0.0,81,0.00,,OVC013,0.00,VWS V14.01,2013-05-19 19:14:00,
2013-05-19 15:19:00,71.7,65.9,30.14,North,360,0.0,0.0,82,0.00,,OVC013,0.00,VWS V14.01,2013-05-19 19:19:00,
2013-05-19 15:26:00,72.3,66.1,30.14,North,360,0.0,0.0,81,0.00,,OVC013,0.00,VWS V14.01,2013-05-19 19:26:00,
2013-05-19 15:34:00,72.8,65.4,30.13,North,360,0.0,0.0,78,0.00,,OVC013,0.00,VWS V14.01,2013-05-19 19:34:00,
2013-05-19 15:39:00,72.3,65.7,30.13,North,360,0.0,0.0,80,0.00,,OVC013,0.00,VWS V14.01,2013-05-19 19:39:00,
2013-05-19 15:44:00,72.5,65.6,30.13,North,360,0.0,0.0,79,0.00,,OVC013,0.00,VWS V14.01,2013-05-19 19:44:00,
2013-05-19 15:54:00,72.9,65.6,30.12,North,360,0.0,0.0,78,0.00,,OVC013,0.00,VWS V14.01,2013-05-19 19:54:00,
2013-05-19 15:59:00,72.9,65.9,30.12,North,360,0.0,0.0,79,0.00,,BKN025,0.00,VWS V14.01,2013-05-19 19:59:00,
2013-05-19 16:07:00,72.9,65.6,30.12,North,360,0.0,0.0,78,0.00,,BKN025,0.00,VWS V14.01,2013-05-19 20:07:00,
2013-05-19 16:14:00,73.1,65.7,30.12,North,360,0.0,0.0,78,0.00,,BKN025,0.00,VWS V14.01,2013-05-19 20:14:00,
2013-05-19 16:19:00,73.0,65.7,30.11,North,360,0.0,0.0,78,0.00,,BKN025,0.00,VWS V14.01,2013-05-19 20:19:00,
2013-05-19 16:24:00,72.9,65.6,30.11,North,360,0.0,0.0,78,0.00,,BKN025,0.00,VWS V14.01,2013-05-19 20:24:00,
2013-05-19 16:29:00,72.6,65.7,30.11,North,360,0.0,0.0,79,0.00,,BKN025,0.00,VWS V14.01,2013-05-19 20:29:00,
2013-05-19 16:34:00,72.6,65.7,30.11,North,360,0.0,0.0,79,0.00,,BKN025,0.00,VWS V14.01,2013-05-19 20:34:00,
2013-05-19 16:39:00,73.0,65.2,30.11,North,360,0.0,0.0,77,0.00,,BKN025,0.00,VWS V14.01,2013-05-19 20:39:00,
2013-05-19 16:49:00,73.5,65.3,30.11,North,360,0.0,0.0,76,0.00,,BKN025,0.00,VWS V14.01,2013-05-19 20:49:00,
2013-05-19 16:54:00,73.4,65.2,30.11,North,360,0.0,0.0,76,0.00,,BKN025,0.00,VWS V14.01,2013-05-19 20:54:00,
2013-05-19 16:59:00,73.8,65.6,30.11,North,360,0.0,0.0,76,0.00,,BKN080,0.00,VWS V14.01,2013-05-19 20:59:00,
2013-05-19 17:07:00,74.1,65.5,30.11,North,360,0.0,0.0,75,0.00,,BKN080,0.00,VWS V14.01,2013-05-19 21:07:00,
2013-05-19 17:14:00,74.3,65.3,30.11,North,360,0.0,0.0,73,0.00,,BKN080,0.00,VWS V14.01,2013-05-19 21:14:00,
2013-05-19 17:19:00,74.1,65.9,30.11,North,360,0.0,0.0,76,0.00,,BKN080,0.00,VWS V14.01,2013-05-19 21:19:00,
2013-05-19 17:24:00,73.8,65.6,30.11,North,360,0.0,0.0,76,0.00,,BKN080,0.00,VWS V14.01,2013-05-19 21:24:00,
2013-05-19 17:29:00,73.9,65.7,30.11,North,360,0.0,0.0,76,0.00,,BKN080,0.00,VWS V14.01,2013-05-19 21:29:00,
2013-05-19 17:34:00,74.0,66.6,30.11,North,360,0.0,0.0,78,0.00,,BKN080,0.00,VWS V14.01,2013-05-19 21:34:00,
2013-05-19 17:39:00,73.9,66.5,30.11,North,360,0.0,0.0,78,0.00,,BKN080,0.00,VWS V14.01,2013-05-19 21:39:00,
2013-05-19 17:49:00,73.3,66.3,30.11,North,360,0.0,0.0,79,0.00,,BKN080,0.00,VWS V14.01,2013-05-19 21:49:00,
2013-05-19 17:54:00,73.1,66.1,30.11,North,360,0.0,0.0,79,0.00,,BKN080,0.00,VWS V14.01,2013-05-19 21:54:00,
2013-05-19 17:59:00,73.0,66.0,30.10,North,360,0.0,0.0,79,0.00,,SCT080,0.00,VWS V14.01,2013-05-19 21:59:00,
2013-05-19 18:07:00,72.9,65.9,30.11,North,360,0.0,0.0,79,0.00,,SCT080,0.00,VWS V14.01,2013-05-19 22:07:00,
2013-05-19 18:14:00,72.8,66.2,30.10,North,360,0.0,0.0,80,0.00,,SCT080,0.00,VWS V14.01,2013-05-19 22:14:00,
2013-05-19 18:19:00,72.5,66.3,30.10,North,360,0.0,0.0,81,0.00,,SCT080,0.00,VWS V14.01,2013-05-19 22:19:00,
2013-05-19 18:24:00,72.3,66.1,30.10,North,360,0.0,0.0,81,0.00,,SCT080,0.00,VWS V14.01,2013-05-19 22:24:00,
2013-05-19 18:29:00,72.2,66.0,30.10,North,360,0.0,0.0,81,0.00,,SCT080,0.00,VWS V14.01,2013-05-19 22:29:00,
2013-05-19 18:34:00,72.2,66.0,30.10,North,360,0.0,0.0,81,0.00,,SCT080,0.00,VWS V14.01,2013-05-19 22:34:00,
2013-05-19 18:39:00,72.2,66.0,30.10,North,360,0.0,0.0,81,0.00,,SCT080,0.00,VWS V14.01,2013-05-19 22:39:00,
2013-05-19 18:44:00,72.2,66.4,30.10,North,360,0.0,0.0,82,0.00,,SCT080,0.00,VWS V14.01,2013-05-19 22:44:00,
2013-05-19 18:49:00,72.1,66.3,30.10,North,360,0.0,0.0,82,0.00,,SCT080,0.00,VWS V14.01,2013-05-19 22:49:00,
2013-05-19 18:54:00,72.0,66.2,30.10,North,360,0.0,0.0,82,0.00,,SCT080,0.00,VWS V14.01,2013-05-19 22:54:00,
2013-05-19 18:59:00,72.0,66.6,30.10,North,360,0.0,0.0,83,0.00,,OVC075,0.00,VWS V14.01,2013-05-19 22:59:00,
2013-05-19 19:07:00,71.9,66.5,30.10,North,360,0.0,0.0,83,0.00,,OVC075,0.00,VWS V14.01,2013-05-19 23:07:00,
2013-05-19 19:14:00,71.8,66.8,30.10,North,360,0.0,0.0,84,0.00,,OVC075,0.00,VWS V14.01,2013-05-19 23:14:00,
2013-05-19 19:19:00,71.6,66.6,30.10,North,360,0.0,0.0,84,0.00,,OVC075,0.00,VWS V14.01,2013-05-19 23:19:00,
2013-05-19 19:24:00,71.5,66.4,30.11,North,360,0.0,0.0,84,0.00,,OVC075,0.00,VWS V14.01,2013-05-19 23:24:00,
2013-05-19 19:29:00,71.5,66.4,30.10,North,360,0.0,0.0,84,0.00,,OVC075,0.00,VWS V14.01,2013-05-19 23:29:00,
2013-05-19 19:34:00,71.4,66.7,30.11,North,360,0.0,0.0,85,0.00,,OVC075,0.00,VWS V14.01,2013-05-19 23:34:00,
2013-05-19 19:39:00,71.3,66.6,30.11,North,360,0.0,0.0,85,0.00,,OVC075,0.00,VWS V14.01,2013-05-19 23:39:00,
2013-05-19 19:49:00,71.1,66.4,30.11,North,360,0.0,0.0,85,0.00,,OVC075,0.00,VWS V14.01,2013-05-19 23:49:00,
2013-05-19 19:59:00,70.9,66.9,30.10,North,360,0.0,0.0,87,0.00,,OVC080,0.00,VWS V14.01,2013-05-19 23:59:00,
2013-05-19 20:07:00,70.7,66.4,30.10,North,360,0.0,0.0,86,0.00,,OVC080,0.00,VWS V14.01,2013-05-20 00:07:00,
2013-05-19 20:14:00,70.5,66.5,30.11,North,360,0.0,0.0,87,0.00,,OVC080,0.00,VWS V14.01,2013-05-20 00:14:00,
2013-05-19 20:19:00,70.4,66.8,30.11,North,360,0.0,0.0,88,0.00,,OVC080,0.00,VWS V14.01,2013-05-20 00:19:00,
2013-05-19 20:24:00,70.5,66.5,30.11,North,360,0.0,0.0,87,0.00,,OVC080,0.00,VWS V14.01,2013-05-20 00:24:00,
2013-05-19 20:29:00,70.5,66.2,30.11,North,360,0.0,0.0,86,0.00,,OVC080,0.00,VWS V14.01,2013-05-20 00:29:00,
2013-05-19 20:34:00,70.5,66.2,30.11,North,360,0.0,0.0,86,0.00,,OVC080,0.00,VWS V14.01,2013-05-20 00:34:00,
2013-05-19 20:39:00,70.5,66.2,30.11,North,360,0.0,0.0,86,0.00,,OVC080,0.00,VWS V14.01,2013-05-20 00:39:00,
2013-05-19 20:49:00,70.4,66.1,30.11,North,360,0.0,0.0,86,0.00,,OVC080,0.00,VWS V14.01,2013-05-20 00:49:00,
2013-05-19 20:59:00,70.4,66.1,30.11,North,360,0.0,0.0,86,0.00,,-RA,0.00,VWS V14.01,2013-05-20 00:59:00,
2013-05-19 21:07:00,70.4,65.7,30.12,North,360,0.0,0.0,85,0.00,,-RA,0.00,VWS V14.01,2013-05-20 01:07:00,
2013-05-19 21:14:00,70.5,65.8,30.12,North,360,0.0,0.0,85,0.00,,-RA,0.00,VWS V14.01,2013-05-20 01:14:00,
2013-05-19 21:19:00,70.3,66.0,30.13,North,360,0.0,0.0,86,0.00,,-RA,0.00,VWS V14.01,2013-05-20 01:19:00,
2013-05-19 21:24:00,70.2,65.9,30.13,North,360,0.0,0.0,86,0.00,,-RA,0.00,VWS V14.01,2013-05-20 01:24:00,
2013-05-19 21:34:00,69.9,65.6,30.13,North,360,0.0,0.0,86,0.00,,-RA,0.00,VWS V14.01,2013-05-20 01:34:00,
2013-05-19 21:39:00,69.8,65.8,30.13,North,360,0.0,0.0,87,0.00,,-RA,0.00,VWS V14.01,2013-05-20 01:39:00,
2013-05-19 21:44:00,69.7,65.8,30.14,North,360,0.0,0.0,87,0.00,,-RA,0.00,VWS V14.01,2013-05-20 01:44:00,
2013-05-19 21:49:00,69.6,65.7,30.14,North,360,0.0,0.0,87,0.00,,-RA,0.00,VWS V14.01,2013-05-20 01:49:00,
2013-05-19 21:59:00,69.5,65.6,30.14,North,360,0.0,0.0,87,0.00,,-RA,0.00,VWS V14.01,2013-05-20 01:59:00,
2013-05-19 22:07:00,69.4,65.5,30.15,North,360,0.0,0.0,87,0.00,,-RA,0.00,VWS V14.01,2013-05-20 02:07:00,
2013-05-19 22:14:00,69.3,65.4,30.15,North,360,0.0,0.0,87,0.00,,-RA,0.00,VWS V14.01,2013-05-20 02:14:00,
2013-05-19 22:19:00,69.2,65.3,30.15,North,360,0.0,0.0,87,0.00,,-RA,0.00,VWS V14.01,2013-05-20 02:19:00,
2013-05-19 22:24:00,69.1,65.2,30.15,North,360,0.0,0.0,87,0.00,,-RA,0.00,VWS V14.01,2013-05-20 02:24:00,
2013-05-19 22:29:00,69.1,64.8,30.15,North,360,0.0,0.0,86,0.00,,-RA,0.00,VWS V14.01,2013-05-20 02:29:00,
2013-05-19 22:39:00,69.0,65.1,30.15,North,360,0.0,0.0,87,0.00,,-RA,0.00,VWS V14.01,2013-05-20 02:39:00,
2013-05-19 22:44:00,69.0,64.7,30.15,North,360,0.0,0.0,86,0.00,,-RA,0.00,VWS V14.01,2013-05-20 02:44:00,
2013-05-19 22:49:00,68.9,65.0,30.15,North,360,0.0,0.0,87,0.00,,-RA,0.00,VWS V14.01,2013-05-20 02:49:00,
2013-05-19 22:54:00,68.9,65.0,30.15,North,360,0.0,0.0,87,0.00,,-RA,0.00,VWS V14.01,2013-05-20 02:54:00,
2013-05-19 22:59:00,68.8,64.9,30.14,North,360,0.0,0.0,87,0.00,,OVC075,0.00,VWS V14.01,2013-05-20 02:59:00,
2013-05-19 23:07:00,68.8,64.9,30.14,North,360,0.0,0.0,87,0.00,,OVC075,0.00,VWS V14.01,2013-05-20 03:07:00,
2013-05-19 23:14:00,68.8,64.9,30.14,North,360,0.0,0.0,87,0.00,,OVC075,0.00,VWS V14.01,2013-05-20 03:14:00,
2013-05-19 23:19:00,68.8,65.2,30.13,North,360,0.0,0.0,88,0.00,,OVC075,0.00,VWS V14.01,2013-05-20 03:19:00,
2013-05-19 23:26:00,68.8,65.2,30.13,North,360,0.0,0.0,88,0.00,,OVC075,0.00,VWS V14.01,2013-05-20 03:26:00,
2013-05-19 23:34:00,68.9,65.3,30.14,North,360,0.0,0.0,88,0.00,,OVC075,0.00,VWS V14.01,2013-05-20 03:34:00,
2013-05-19 23:39:00,68.8,65.2,30.14,North,360,0.0,0.0,88,0.00,,OVC075,0.00,VWS V14.01,2013-05-20 03:39:00,
2013-05-19 23:44:00,68.8,65.2,30.14,North,360,0.0,0.0,88,0.00,,OVC075,0.00,VWS V14.01,2013-05-20 03:44:00,
2013-05-19 23:49:00,68.8,65.2,30.14,North,360,0.0,0.0,88,0.00,,OVC075,0.00,VWS V14.01,2013-05-20 03:49:00,
2013-05-19 23:54:00,68.8,65.2,30.13,North,360,0.0,0.0,88,0.00,,OVC075,0.00,VWS V14.01,2013-05-20 03:54:00,
2013-05-19 23:59:00,68.8,65.2,30.13,North,360,0.0,0.0,88,0.00,,OVC095,0.00,VWS V14.01,2013-05-20 03:59:00,